timestamp,wind_dir_avg,wind_spd_avg,wind_spd_max_dir,wind_spd_gust,battery_voltage,lat,long
2021-08-15 00:04:00+00:00,204.0,2.72,204.0,3.06,12.65,47.59359,-54.27349
2021-08-15 00:14:01+00:00,212.0,2.95,212.0,3.35,12.65,47.59359,-54.27349
2021-08-15 00:24:01+00:00,218.0,4.05,225.0,4.49,12.65,47.59359,-54.27349
2021-08-15 00:34:01+00:00,214.0,3.89,212.0,4.4,12.65,47.59359,-54.27349
2021-08-15 00:44:01+00:00,222.0,4.71,220.0,5.48,12.65,47.59359,-54.27349
2021-08-15 00:54:01+00:00,220.0,4.78,219.0,5.73,12.65,47.59359,-54.27349
2021-08-15 01:04:01+00:00,225.0,4.72,228.0,5.54,12.65,47.59359,-54.27349
2021-08-15 01:14:01+00:00,230.0,3.68,234.0,4.35,12.65,47.59359,-54.27349
2021-08-15 01:24:01+00:00,234.0,3.63,231.0,4.01,12.65,47.59359,-54.27349
2021-08-15 01:34:01+00:00,243.0,4.12,247.0,4.8,12.65,47.59359,-54.27349
2021-08-15 01:44:01+00:00,224.0,4.99,225.0,5.53,12.65,47.59359,-54.27349
2021-08-15 01:54:01+00:00,223.0,5.61,221.0,6.1,12.65,47.59359,-54.27349
2021-08-15 02:04:01+00:00,215.0,4.25,218.0,4.58,12.65,47.59359,-54.27349
2021-08-15 02:14:01+00:00,220.0,3.58,221.0,3.87,12.65,47.59359,-54.27349
2021-08-15 02:24:01+00:00,209.0,2.74,211.0,3.02,12.65,47.59359,-54.27349
2021-08-15 02:34:01+00:00,202.0,2.84,201.0,3.04,12.65,47.59359,-54.27349
2021-08-15 02:44:01+00:00,215.0,4.15,216.0,4.43,12.65,47.59359,-54.27349
2021-08-15 02:54:01+00:00,214.0,4.12,213.0,4.66,12.65,47.59359,-54.27349
2021-08-15 03:04:01+00:00,214.0,4.06,215.0,4.59,12.65,47.59359,-54.27349
2021-08-15 03:14:00+00:00,218.0,4.29,214.0,5.02,12.65,47.59359,-54.27349
2021-08-15 03:24:00+00:00,214.0,4.43,212.0,5.01,12.65,47.59359,-54.27349
2021-08-15 03:34:00+00:00,212.0,3.67,210.0,4.12,12.65,47.59359,-54.27349
2021-08-15 03:44:00+00:00,217.0,4.02,220.0,5.01,12.65,47.59359,-54.27349
2021-08-15 03:54:00+00:00,216.0,5.23,216.0,6.07,12.65,47.59359,-54.27349
2021-08-15 04:04:00+00:00,219.0,5.15,216.0,5.66,12.65,47.59359,-54.27349
2021-08-15 04:14:01+00:00,218.0,5.89,216.0,6.45,12.65,47.59359,-54.27349
2021-08-15 04:24:01+00:00,217.0,5.25,223.0,6.29,12.65,47.59359,-54.27349
2021-08-15 04:34:01+00:00,213.0,5.66,214.0,6.55,12.65,47.59359,-54.27349
2021-08-15 04:44:01+00:00,218.0,5.0,223.0,5.66,12.65,47.59359,-54.27349
2021-08-15 04:54:01+00:00,212.0,4.52,217.0,5.72,12.65,47.59359,-54.27349
2021-08-15 05:04:01+00:00,209.0,4.59,206.0,5.02,12.65,47.59359,-54.27349
2021-08-15 05:14:01+00:00,199.0,4.83,200.0,5.38,12.57,47.59359,-54.27349
2021-08-15 05:24:01+00:00,202.0,4.58,203.0,5.2,12.57,47.59359,-54.27349
2021-08-15 05:34:01+00:00,210.0,5.2,215.0,5.83,12.57,47.59359,-54.27349
2021-08-15 05:44:01+00:00,210.0,4.38,212.0,5.0,12.57,47.59359,-54.27349
2021-08-15 05:54:01+00:00,206.0,3.94,205.0,4.22,12.57,47.59359,-54.27349
2021-08-15 06:04:01+00:00,196.0,4.02,195.0,4.59,12.57,47.59359,-54.27349
2021-08-15 06:14:01+00:00,197.0,3.32,194.0,3.66,12.57,47.59359,-54.27349
2021-08-15 06:24:01+00:00,198.0,3.15,200.0,3.53,12.57,47.59359,-54.27349
2021-08-15 06:34:01+00:00,187.0,3.48,186.0,3.81,12.57,47.59359,-54.27349
2021-08-15 06:44:01+00:00,192.0,2.8,197.0,3.12,12.57,47.59359,-54.27349
2021-08-15 06:54:01+00:00,187.0,2.36,192.0,2.82,12.57,47.59359,-54.27349
2021-08-15 07:04:01+00:00,189.0,2.33,190.0,2.6,12.57,47.59359,-54.27349
2021-08-15 07:14:01+00:00,191.0,2.36,194.0,2.55,12.57,47.59359,-54.27349
2021-08-15 07:24:01+00:00,197.0,3.02,196.0,3.28,12.57,47.59359,-54.27349
2021-08-15 07:34:01+00:00,200.0,3.32,202.0,3.76,12.57,47.59359,-54.27349
2021-08-15 07:44:01+00:00,204.0,3.24,205.0,3.55,12.57,47.59359,-54.27349
2021-08-15 07:54:01+00:00,201.0,3.33,200.0,3.63,12.57,47.59359,-54.27349
2021-08-15 08:04:01+00:00,193.0,3.0,194.0,3.29,12.57,47.59359,-54.27349
2021-08-15 08:14:00+00:00,186.0,2.72,190.0,3.01,12.49,47.59359,-54.27349
2021-08-15 08:24:00+00:00,186.0,2.65,185.0,3.02,12.49,47.59359,-54.27349
2021-08-15 08:34:00+00:00,201.0,3.13,200.0,3.46,12.49,47.59359,-54.27349
2021-08-15 08:44:00+00:00,207.0,3.55,207.0,3.93,12.49,47.59359,-54.27349
2021-08-15 08:54:00+00:00,209.0,4.3,206.0,4.87,12.49,47.59359,-54.27349
2021-08-15 09:04:00+00:00,204.0,4.28,203.0,4.78,12.49,47.59359,-54.27349
2021-08-15 09:14:01+00:00,211.0,4.32,214.0,4.74,12.49,47.59359,-54.27349
2021-08-15 09:24:01+00:00,216.0,4.31,216.0,4.92,12.49,47.59359,-54.27349
2021-08-15 09:34:01+00:00,230.0,4.84,230.0,5.42,12.49,47.59359,-54.27349
2021-08-15 09:44:01+00:00,230.0,4.22,234.0,4.93,12.49,47.59359,-54.27349
2021-08-15 09:54:01+00:00,230.0,4.15,230.0,4.72,12.49,47.59359,-54.27349
2021-08-15 10:04:01+00:00,225.0,2.68,239.0,3.39,12.49,47.59359,-54.27349
2021-08-15 10:14:01+00:00,209.0,2.5,213.0,2.87,12.57,47.59359,-54.27349
2021-08-15 10:24:01+00:00,199.0,3.07,200.0,3.2,12.57,47.59359,-54.27349
2021-08-15 10:34:01+00:00,180.0,3.03,181.0,3.34,12.57,47.59359,-54.27349
2021-08-15 10:44:01+00:00,195.0,3.08,200.0,3.36,12.57,47.59359,-54.27349
2021-08-15 10:54:01+00:00,179.0,2.55,183.0,2.83,12.57,47.59359,-54.27349
2021-08-15 11:04:01+00:00,186.0,2.9,190.0,3.14,12.57,47.59359,-54.27349
2021-08-15 11:14:01+00:00,181.0,2.4,181.0,2.6,13.44,47.59359,-54.27349
2021-08-15 11:24:01+00:00,213.0,3.16,217.0,3.63,13.44,47.59359,-54.27349
2021-08-15 11:34:01+00:00,218.0,5.04,221.0,5.84,13.44,47.59359,-54.27349
2021-08-15 11:44:01+00:00,203.0,3.91,208.0,4.5,13.44,47.59359,-54.27349
2021-08-15 11:54:01+00:00,208.0,4.35,211.0,4.68,13.44,47.59359,-54.27349
2021-08-15 12:04:01+00:00,196.0,4.27,199.0,4.68,13.44,47.59359,-54.27349
2021-08-15 12:14:00+00:00,192.0,4.51,190.0,5.16,13.44,47.59359,-54.27349
2021-08-15 12:24:00+00:00,214.0,4.79,213.0,5.39,13.44,47.59359,-54.27349
2021-08-15 12:34:00+00:00,203.0,4.96,204.0,5.53,13.44,47.59359,-54.27349
2021-08-15 12:44:00+00:00,203.0,4.58,203.0,5.01,13.44,47.59359,-54.27349
2021-08-15 12:54:00+00:00,195.0,4.83,204.0,5.22,13.44,47.59359,-54.27349
2021-08-15 13:04:00+00:00,195.0,4.83,196.0,5.33,13.44,47.59359,-54.27349
2021-08-15 13:14:01+00:00,195.0,4.95,201.0,5.64,13.68,47.59359,-54.27349
2021-08-15 13:24:01+00:00,205.0,4.47,207.0,5.4,13.68,47.59359,-54.27349
2021-08-15 13:34:01+00:00,206.0,5.27,207.0,5.63,13.68,47.59359,-54.27349
2021-08-15 13:44:01+00:00,203.0,5.46,203.0,6.62,13.68,47.59359,-54.27349
2021-08-15 13:54:01+00:00,217.0,6.21,225.0,7.13,13.68,47.59359,-54.27349
2021-08-15 14:04:01+00:00,221.0,6.59,222.0,7.49,13.68,47.59359,-54.27349
2021-08-15 14:14:01+00:00,219.0,5.76,221.0,6.51,13.84,47.59359,-54.27349
2021-08-15 14:24:01+00:00,221.0,5.88,226.0,6.46,13.84,47.59359,-54.27349
2021-08-15 14:34:01+00:00,214.0,4.6,215.0,5.17,13.84,47.59359,-54.27349
2021-08-15 14:44:01+00:00,210.0,5.31,212.0,5.8,13.84,47.59359,-54.27349
2021-08-15 14:54:01+00:00,211.0,5.84,219.0,6.5,13.84,47.59359,-54.27349
2021-08-15 15:04:01+00:00,217.0,6.82,217.0,7.85,13.84,47.59359,-54.27349
2021-08-15 15:14:01+00:00,214.0,6.23,216.0,7.28,13.92,47.59359,-54.27349
2021-08-15 15:24:01+00:00,209.0,5.98,205.0,6.6,13.92,47.59359,-54.27349
2021-08-15 15:34:01+00:00,219.0,6.29,226.0,7.05,13.92,47.59359,-54.27349
2021-08-15 15:44:01+00:00,214.0,6.14,216.0,6.96,13.92,47.59359,-54.27349
2021-08-15 15:54:01+00:00,216.0,6.57,208.0,8.06,13.92,47.59359,-54.27349
2021-08-15 16:04:01+00:00,212.0,6.19,217.0,7.1,13.92,47.59359,-54.27349
2021-08-15 16:14:01+00:00,209.0,6.12,209.0,6.62,14.24,47.59359,-54.27349
2021-08-15 16:24:01+00:00,201.0,5.65,203.0,6.16,14.24,47.59359,-54.27349
2021-08-15 16:34:01+00:00,193.0,5.42,197.0,6.05,14.24,47.59359,-54.27349
2021-08-15 16:44:01+00:00,196.0,5.19,199.0,5.9,14.24,47.59359,-54.27349
2021-08-15 16:54:01+00:00,198.0,5.66,199.0,6.3,14.24,47.59359,-54.27349
2021-08-15 17:04:01+00:00,203.0,6.36,206.0,7.37,14.24,47.59359,-54.27349
2021-08-15 17:14:01+00:00,200.0,6.27,201.0,7.12,14.08,47.59359,-54.27349
2021-08-15 17:24:01+00:00,198.0,7.38,197.0,7.93,14.08,47.59359,-54.27349
2021-08-15 17:34:01+00:00,200.0,7.0,202.0,7.83,14.08,47.59359,-54.27349
2021-08-15 17:44:01+00:00,196.0,5.83,201.0,6.64,14.08,47.59359,-54.27349
2021-08-15 17:54:01+00:00,199.0,6.11,200.0,6.81,14.08,47.59359,-54.27349
2021-08-15 18:04:01+00:00,205.0,6.44,209.0,7.35,14.08,47.59359,-54.27349
2021-08-15 18:14:01+00:00,198.0,6.48,199.0,7.08,13.84,47.59359,-54.27349
2021-08-15 18:24:01+00:00,199.0,6.46,201.0,7.09,13.84,47.59359,-54.27349
2021-08-15 18:34:01+00:00,203.0,6.44,206.0,7.02,13.84,47.59359,-54.27349
2021-08-15 18:44:01+00:00,196.0,6.75,199.0,7.76,13.84,47.59359,-54.27349
2021-08-15 18:54:01+00:00,189.0,7.1,196.0,8.05,13.84,47.59359,-54.27349
2021-08-15 19:04:01+00:00,195.0,6.91,195.0,7.9,13.84,47.59359,-54.27349
2021-08-15 19:14:01+00:00,196.0,7.68,197.0,8.51,13.92,47.59359,-54.27349
2021-08-15 19:24:01+00:00,193.0,7.79,196.0,8.65,13.92,47.59359,-54.27349
2021-08-15 19:34:01+00:00,199.0,7.46,199.0,8.42,13.92,47.59359,-54.27349
2021-08-15 19:44:01+00:00,205.0,8.26,211.0,9.05,13.92,47.59359,-54.27349
2021-08-15 19:54:01+00:00,200.0,7.84,200.0,8.64,13.92,47.59359,-54.27349
2021-08-15 20:04:01+00:00,197.0,7.51,198.0,8.16,13.92,47.59359,-54.27349
2021-08-15 20:14:01+00:00,203.0,7.89,205.0,8.83,13.92,47.59359,-54.27349
2021-08-15 20:24:01+00:00,206.0,8.04,210.0,8.87,13.92,47.59359,-54.27349
2021-08-15 20:34:01+00:00,207.0,8.32,209.0,9.33,13.92,47.59359,-54.27349
2021-08-15 20:44:01+00:00,209.0,7.9,211.0,8.61,13.92,47.59359,-54.27349
2021-08-15 20:54:01+00:00,203.0,8.02,204.0,8.86,13.92,47.59359,-54.27349
2021-08-15 21:04:01+00:00,211.0,7.83,218.0,9.1,13.92,47.59359,-54.27349
2021-08-15 21:14:01+00:00,205.0,6.4,204.0,7.19,13.68,47.59359,-54.27349
2021-08-15 21:24:01+00:00,205.0,5.39,206.0,6.17,13.68,47.59359,-54.27349
2021-08-15 21:34:01+00:00,210.0,8.73,211.0,9.45,13.68,47.59359,-54.27349
2021-08-15 21:44:01+00:00,218.0,7.94,213.0,8.99,13.68,47.59359,-54.27349
2021-08-15 21:54:01+00:00,204.0,7.13,208.0,8.15,13.68,47.59359,-54.27349
2021-08-15 22:04:01+00:00,215.0,7.81,217.0,9.03,13.68,47.59359,-54.27349
2021-08-15 22:14:01+00:00,210.0,7.37,209.0,8.51,13.21,47.59359,-54.27349
2021-08-15 22:24:01+00:00,213.0,7.21,218.0,8.07,13.21,47.59359,-54.27349
2021-08-15 22:34:01+00:00,212.0,7.07,209.0,7.92,13.21,47.59359,-54.27349
2021-08-15 22:44:01+00:00,219.0,6.64,222.0,7.61,13.21,47.59359,-54.27349
2021-08-15 22:54:01+00:00,210.0,6.34,214.0,7.59,13.21,47.59359,-54.27349
2021-08-15 23:04:01+00:00,212.0,4.35,206.0,5.66,13.21,47.59359,-54.27349
2021-08-15 23:14:01+00:00,200.0,5.71,200.0,6.59,12.73,47.59359,-54.27349
2021-08-15 23:24:01+00:00,203.0,5.8,212.0,7.09,12.73,47.59359,-54.27349
2021-08-15 23:34:01+00:00,211.0,8.25,214.0,9.28,12.73,47.59359,-54.27349
2021-08-15 23:44:01+00:00,215.0,7.88,214.0,8.89,12.73,47.59359,-54.27349
2021-08-15 23:54:01+00:00,217.0,5.78,218.0,6.61,12.73,47.59359,-54.27349
